2017,08,31,00,00,00,120.7,,,,,,,,,,,,,,
2017,08,31,00,01,00,,,,,,,,,,,,,,,
2017,08,31,00,02,00,120.7,,,,,,,,,,,,,,
2017,08,31,00,03,00,120.0,,,,,,,,,,,,,,
2017,08,31,00,04,00,120.4,,,,,,,,,,,,,,
2017,08,31,00,05,00,122.4,,,,,,,,,,,,,,
2017,08,31,00,06,00,137.5,,,,,,,,,,,,,,
2017,08,31,00,07,00,140.0,,,,,,,,,,,,,,
2017,08,31,00,08,00,126.4,,,,,,,,,,,,,,
2017,08,31,00,09,00,120.5,,,,,,,,,,,,,,
2017,08,31,00,10,00,121.4,,,,,,,,,,,,,,
2017,08,31,00,11,00,118.3,,,,,,,,,,,,,,
2017,08,31,00,12,00,122.4,,,,,,,,,,,,,,
2017,08,31,00,13,00,121.6,,,,,,,,,,,,,,
2017,08,31,00,14,00,123.2,,,,,,,,,,,,,,
2017,08,31,00,15,00,124.4,,,,,,,,,,,,,,
2017,08,31,00,16,00,121.8,,,,,,,,,,,,,,
2017,08,31,00,17,00,122.9,,,,,,,,,,,,,,
2017,08,31,00,18,00,123.2,,,,,,,,,,,,,,
2017,08,31,00,19,00,123.7,,,,,,,,,,,,,,
2017,08,31,00,20,00,136.1,,,,,,,,,,,,,,
2017,08,31,00,21,00,158.9,,,,,,,,,,,,,,
2017,08,31,00,22,00,155.5,,,,,,,,,,,,,,
2017,08,31,00,23,00,145.0,,,,,,,,,,,,,,
2017,08,31,00,24,00,136.2,,,,,,,,,,,,,,
2017,08,31,00,25,00,137.3,,,,,,,,,,,,,,
2017,08,31,00,26,00,150.4,,,,,,,,,,,,,,
2017,08,31,00,27,00,147.1,,,,,,,,,,,,,,
2017,08,31,00,28,00,133.1,,,,,,,,,,,,,,
2017,08,31,00,29,00,128.0,,,,,,,,,,,,,,
2017,08,31,00,30,00,127.0,,,,,,,,,,,,,,
2017,08,31,00,31,00,133.4,,,,,,,,,,,,,,
2017,08,31,00,32,00,135.5,,,,,,,,,,,,,,
2017,08,31,00,33,00,129.4,,,,,,,,,,,,,,
2017,08,31,00,34,00,124.1,,,,,,,,,,,,,,
2017,08,31,00,35,00,129.6,,,,,,,,,,,,,,
2017,08,31,00,36,00,123.7,,,,,,,,,,,,,,
2017,08,31,00,37,00,118.1,,,,,,,,,,,,,,
2017,08,31,00,38,00,118.2,,,,,,,,,,,,,,
2017,08,31,00,39,00,117.3,,,,,,,,,,,,,,
2017,08,31,00,40,00,115.6,,,,,,,,,,,,,,
2017,08,31,00,41,00,120.5,,,,,,,,,,,,,,
2017,08,31,00,42,00,120.9,,,,,,,,,,,,,,
2017,08,31,00,43,00,118.7,,,,,,,,,,,,,,
2017,08,31,00,44,00,114.8,,,,,,,,,,,,,,
2017,08,31,00,45,00,118.9,,,,,,,,,,,,,,
2017,08,31,00,46,00,121.9,,,,,,,,,,,,,,
2017,08,31,00,47,00,124.0,,,,,,,,,,,,,,
2017,08,31,00,48,00,125.6,,,,,,,,,,,,,,
2017,08,31,00,49,00,124.5,,,,,,,,,,,,,,
2017,08,31,00,50,00,124.1,,,,,,,,,,,,,,
2017,08,31,00,51,00,124.2,,,,,,,,,,,,,,
2017,08,31,00,52,00,136.4,,,,,,,,,,,,,,
2017,08,31,00,53,00,127.1,,,,,,,,,,,,,,
2017,08,31,00,54,00,139.1,,,,,,,,,,,,,,
2017,08,31,00,55,00,130.9,,,,,,,,,,,,,,
2017,08,31,00,56,00,126.4,,,,,,,,,,,,,,
2017,08,31,00,57,00,145.6,,,,,,,,,,,,,,
2017,08,31,00,58,00,147.3,,,,,,,,,,,,,,
2017,08,31,00,59,00,150.2,,,,,,,,,,,,,,
2017,08,31,01,00,00,148.0,,,,,,,,,,,,,,
2017,08,31,01,01,00,136.4,,,,,,,,,,,,,,
2017,08,31,01,02,00,124.2,,,,,,,,,,,,,,
2017,08,31,01,03,00,123.3,,,,,,,,,,,,,,
2017,08,31,01,04,00,122.5,,,,,,,,,,,,,,
2017,08,31,01,05,00,122.5,,,,,,,,,,,,,,
2017,08,31,01,06,00,123.0,,,,,,,,,,,,,,
2017,08,31,01,07,00,125.1,,,,,,,,,,,,,,
2017,08,31,01,08,00,144.6,,,,,,,,,,,,,,
2017,08,31,01,09,00,159.4,,,,,,,,,,,,,,
2017,08,31,01,10,00,163.3,,,,,,,,,,,,,,
2017,08,31,01,11,00,152.3,,,,,,,,,,,,,,
2017,08,31,01,12,00,153.0,,,,,,,,,,,,,,
2017,08,31,01,13,00,143.9,,,,,,,,,,,,,,
2017,08,31,01,14,00,138.5,,,,,,,,,,,,,,
2017,08,31,01,15,00,140.6,,,,,,,,,,,,,,
2017,08,31,01,16,00,146.0,,,,,,,,,,,,,,
2017,08,31,01,17,00,144.7,,,,,,,,,,,,,,
2017,08,31,01,18,00,146.7,,,,,,,,,,,,,,
2017,08,31,01,19,00,143.7,,,,,,,,,,,,,,
2017,08,31,01,20,00,151.5,,,,,,,,,,,,,,
2017,08,31,01,21,00,148.3,,,,,,,,,,,,,,
2017,08,31,01,22,00,146.4,,,,,,,,,,,,,,
2017,08,31,01,23,00,150.0,,,,,,,,,,,,,,
2017,08,31,01,24,00,149.1,,,,,,,,,,,,,,
2017,08,31,01,25,00,155.8,,,,,,,,,,,,,,
2017,08,31,01,26,00,151.1,,,,,,,,,,,,,,
2017,08,31,01,27,00,144.3,,,,,,,,,,,,,,
2017,08,31,01,28,00,147.8,,,,,,,,,,,,,,
2017,08,31,01,29,00,148.9,,,,,,,,,,,,,,
2017,08,31,01,30,00,148.8,,,,,,,,,,,,,,
2017,08,31,01,31,00,154.4,,,,,,,,,,,,,,
2017,08,31,01,32,00,150.7,,,,,,,,,,,,,,
2017,08,31,01,33,00,143.4,,,,,,,,,,,,,,
2017,08,31,01,34,00,124.3,,,,,,,,,,,,,,
2017,08,31,01,35,00,126.2,,,,,,,,,,,,,,
2017,08,31,01,36,00,141.3,,,,,,,,,,,,,,
2017,08,31,01,37,00,136.7,,,,,,,,,,,,,,
2017,08,31,01,38,00,145.0,,,,,,,,,,,,,,
2017,08,31,01,39,00,157.5,,,,,,,,,,,,,,
2017,08,31,01,40,00,156.9,,,,,,,,,,,,,,
2017,08,31,01,41,00,149.9,,,,,,,,,,,,,,
2017,08,31,01,42,00,153.8,,,,,,,,,,,,,,
2017,08,31,01,43,00,155.9,,,,,,,,,,,,,,
2017,08,31,01,44,00,157.6,,,,,,,,,,,,,,
2017,08,31,01,45,00,150.7,,,,,,,,,,,,,,
2017,08,31,01,46,00,150.0,,,,,,,,,,,,,,
2017,08,31,01,47,00,156.9,,,,,,,,,,,,,,
2017,08,31,01,48,00,159.9,,,,,,,,,,,,,,
2017,08,31,01,49,00,161.3,,,,,,,,,,,,,,
2017,08,31,01,50,00,153.7,,,,,,,,,,,,,,
2017,08,31,01,51,00,152.0,,,,,,,,,,,,,,
2017,08,31,01,52,00,158.9,,,,,,,,,,,,,,
2017,08,31,01,53,00,159.3,,,,,,,,,,,,,,
2017,08,31,01,54,00,147.8,,,,,,,,,,,,,,
2017,08,31,01,55,00,123.1,,,,,,,,,,,,,,
2017,08,31,01,56,00,119.9,,,,,,,,,,,,,,
2017,08,31,01,57,00,119.7,,,,,,,,,,,,,,
2017,08,31,01,58,00,119.5,,,,,,,,,,,,,,
2017,08,31,01,59,00,121.9,,,,,,,,,,,,,,
2017,08,31,02,00,00,123.3,,,,,,,,,,,,,,
2017,08,31,02,01,00,124.0,,,,,,,,,,,,,,
2017,08,31,02,02,00,123.5,,,,,,,,,,,,,,
2017,08,31,02,03,00,125.1,,,,,,,,,,,,,,
2017,08,31,02,04,00,127.8,,,,,,,,,,,,,,
2017,08,31,02,05,00,141.2,,,,,,,,,,,,,,
2017,08,31,02,06,00,149.5,,,,,,,,,,,,,,
2017,08,31,02,07,00,148.6,,,,,,,,,,,,,,
2017,08,31,02,08,00,147.4,,,,,,,,,,,,,,
2017,08,31,02,09,00,147.5,,,,,,,,,,,,,,
2017,08,31,02,10,00,145.9,,,,,,,,,,,,,,
2017,08,31,02,11,00,146.1,,,,,,,,,,,,,,
2017,08,31,02,12,00,144.0,,,,,,,,,,,,,,
2017,08,31,02,13,00,142.7,,,,,,,,,,,,,,
2017,08,31,02,14,00,140.7,,,,,,,,,,,,,,
2017,08,31,02,15,00,150.0,,,,,,,,,,,,,,
2017,08,31,02,16,00,142.5,,,,,,,,,,,,,,
2017,08,31,02,17,00,148.8,,,,,,,,,,,,,,
2017,08,31,02,18,00,132.5,,,,,,,,,,,,,,
2017,08,31,02,19,00,142.6,,,,,,,,,,,,,,
2017,08,31,02,20,00,137.9,,,,,,,,,,,,,,
2017,08,31,02,21,00,129.7,,,,,,,,,,,,,,
2017,08,31,02,22,00,135.7,,,,,,,,,,,,,,
2017,08,31,02,23,00,126.7,,,,,,,,,,,,,,
2017,08,31,02,24,00,121.4,,,,,,,,,,,,,,
2017,08,31,02,25,00,121.0,,,,,,,,,,,,,,
2017,08,31,02,26,00,120.1,,,,,,,,,,,,,,
2017,08,31,02,27,00,121.1,,,,,,,,,,,,,,
2017,08,31,02,28,00,120.8,,,,,,,,,,,,,,
2017,08,31,02,29,00,118.4,,,,,,,,,,,,,,
2017,08,31,02,30,00,115.4,,,,,,,,,,,,,,
2017,08,31,02,31,00,114.8,,,,,,,,,,,,,,
2017,08,31,02,32,00,115.4,,,,,,,,,,,,,,
2017,08,31,02,33,00,112.0,,,,,,,,,,,,,,
2017,08,31,02,34,00,111.4,,,,,,,,,,,,,,
2017,08,31,02,35,00,110.3,,,,,,,,,,,,,,
2017,08,31,02,36,00,110.5,,,,,,,,,,,,,,
2017,08,31,02,37,00,111.1,,,,,,,,,,,,,,
2017,08,31,02,38,00,108.1,,,,,,,,,,,,,,
2017,08,31,02,39,00,110.1,,,,,,,,,,,,,,
2017,08,31,02,40,00,111.4,,,,,,,,,,,,,,
2017,08,31,02,41,00,107.9,,,,,,,,,,,,,,
2017,08,31,02,42,00,106.3,,,,,,,,,,,,,,
2017,08,31,02,43,00,106.8,,,,,,,,,,,,,,
2017,08,31,02,44,00,106.4,,,,,,,,,,,,,,
2017,08,31,02,45,00,109.8,,,,,,,,,,,,,,
2017,08,31,02,46,00,109.7,,,,,,,,,,,,,,
2017,08,31,02,47,00,110.7,,,,,,,,,,,,,,
2017,08,31,02,48,00,105.5,,,,,,,,,,,,,,
2017,08,31,02,49,00,105.7,,,,,,,,,,,,,,
2017,08,31,02,50,00,108.0,,,,,,,,,,,,,,
2017,08,31,02,51,00,111.6,,,,,,,,,,,,,,
2017,08,31,02,52,00,111.7,,,,,,,,,,,,,,
2017,08,31,02,53,00,108.7,,,,,,,,,,,,,,
2017,08,31,02,54,00,114.7,,,,,,,,,,,,,,
2017,08,31,02,55,00,116.7,,,,,,,,,,,,,,
2017,08,31,02,56,00,110.8,,,,,,,,,,,,,,
2017,08,31,02,57,00,112.1,,,,,,,,,,,,,,
2017,08,31,02,58,00,113.7,,,,,,,,,,,,,,
2017,08,31,02,59,00,112.8,,,,,,,,,,,,,,
2017,08,31,03,00,00,109.1,,,,,,,,,,,,,,
2017,08,31,03,01,00,113.5,,,,,,,,,,,,,,
2017,08,31,03,02,00,116.3,,,,,,,,,,,,,,
2017,08,31,03,03,00,109.7,,,,,,,,,,,,,,
2017,08,31,03,04,00,104.9,,,,,,,,,,,,,,
2017,08,31,03,05,00,103.2,,,,,,,,,,,,,,
2017,08,31,03,06,00,107.5,,,,,,,,,,,,,,
2017,08,31,03,07,00,110.4,,,,,,,,,,,,,,
2017,08,31,03,08,00,107.6,,,,,,,,,,,,,,
2017,08,31,03,09,00,106.6,,,,,,,,,,,,,,
2017,08,31,03,10,00,105.7,,,,,,,,,,,,,,
2017,08,31,03,11,00,106.3,,,,,,,,,,,,,,
2017,08,31,03,12,00,108.0,,,,,,,,,,,,,,
2017,08,31,03,13,00,108.9,,,,,,,,,,,,,,
2017,08,31,03,14,00,105.9,,,,,,,,,,,,,,
2017,08,31,03,15,00,106.4,,,,,,,,,,,,,,
2017,08,31,03,16,00,107.3,,,,,,,,,,,,,,
2017,08,31,03,17,00,108.0,,,,,,,,,,,,,,
2017,08,31,03,18,00,113.8,,,,,,,,,,,,,,
2017,08,31,03,19,00,118.6,,,,,,,,,,,,,,
2017,08,31,03,20,00,118.4,,,,,,,,,,,,,,
2017,08,31,03,21,00,118.9,,,,,,,,,,,,,,
2017,08,31,03,22,00,127.6,,,,,,,,,,,,,,
2017,08,31,03,23,00,125.1,,,,,,,,,,,,,,
2017,08,31,03,24,00,116.4,,,,,,,,,,,,,,
2017,08,31,03,25,00,119.3,,,,,,,,,,,,,,
2017,08,31,03,26,00,122.3,,,,,,,,,,,,,,
2017,08,31,03,27,00,130.3,,,,,,,,,,,,,,
2017,08,31,03,28,00,129.5,,,,,,,,,,,,,,
2017,08,31,03,29,00,121.2,,,,,,,,,,,,,,
2017,08,31,03,30,00,120.9,,,,,,,,,,,,,,
2017,08,31,03,31,00,117.3,,,,,,,,,,,,,,
2017,08,31,03,32,00,115.0,,,,,,,,,,,,,,
2017,08,31,03,33,00,112.2,,,,,,,,,,,,,,
2017,08,31,03,34,00,104.9,,,,,,,,,,,,,,
2017,08,31,03,35,00,102.3,,,,,,,,,,,,,,
2017,08,31,03,36,00,101.0,,,,,,,,,,,,,,
2017,08,31,03,37,00,103.8,,,,,,,,,,,,,,
2017,08,31,03,38,00,103.6,,,,,,,,,,,,,,
2017,08,31,03,39,00,103.0,,,,,,,,,,,,,,
2017,08,31,03,40,00,90.8,,,,,,,,,,,,,,
2017,08,31,03,41,00,91.1,,,,,,,,,,,,,,
2017,08,31,03,42,00,107.7,,,,,,,,,,,,,,
2017,08,31,03,43,00,116.5,,,,,,,,,,,,,,
2017,08,31,03,44,00,106.3,,,,,,,,,,,,,,
2017,08,31,03,45,00,108.3,,,,,,,,,,,,,,
2017,08,31,03,46,00,105.7,,,,,,,,,,,,,,
2017,08,31,03,47,00,117.7,,,,,,,,,,,,,,
2017,08,31,03,48,00,111.5,,,,,,,,,,,,,,
2017,08,31,03,49,00,107.5,,,,,,,,,,,,,,
2017,08,31,03,50,00,101.7,,,,,,,,,,,,,,
2017,08,31,03,51,00,101.3,,,,,,,,,,,,,,
2017,08,31,03,52,00,106.2,,,,,,,,,,,,,,
2017,08,31,03,53,00,118.7,,,,,,,,,,,,,,
2017,08,31,03,54,00,112.4,,,,,,,,,,,,,,
2017,08,31,03,55,00,122.3,,,,,,,,,,,,,,
2017,08,31,03,56,00,120.3,,,,,,,,,,,,,,
2017,08,31,03,57,00,108.3,,,,,,,,,,,,,,
2017,08,31,03,58,00,107.0,,,,,,,,,,,,,,
2017,08,31,03,59,00,109.6,,,,,,,,,,,,,,
2017,08,31,04,00,00,107.8,,,,,,,,,,,,,,
2017,08,31,04,01,00,107.9,,,,,,,,,,,,,,
2017,08,31,04,02,00,103.5,,,,,,,,,,,,,,
2017,08,31,04,03,00,103.5,,,,,,,,,,,,,,
2017,08,31,04,04,00,96.5,,,,,,,,,,,,,,
2017,08,31,04,05,00,92.6,,,,,,,,,,,,,,
2017,08,31,04,06,00,93.0,,,,,,,,,,,,,,
2017,08,31,04,07,00,90.3,,,,,,,,,,,,,,
2017,08,31,04,08,00,86.7,,,,,,,,,,,,,,
2017,08,31,04,09,00,86.5,,,,,,,,,,,,,,
2017,08,31,04,10,00,81.7,,,,,,,,,,,,,,
2017,08,31,04,11,00,81.6,,,,,,,,,,,,,,
2017,08,31,04,12,00,81.6,,,,,,,,,,,,,,
2017,08,31,04,13,00,81.3,,,,,,,,,,,,,,
2017,08,31,04,14,00,80.7,,,,,,,,,,,,,,
2017,08,31,04,15,00,80.9,,,,,,,,,,,,,,
2017,08,31,04,16,00,82.6,,,,,,,,,,,,,,
2017,08,31,04,17,00,101.5,,,,,,,,,,,,,,
2017,08,31,04,18,00,112.1,,,,,,,,,,,,,,
2017,08,31,04,19,00,110.8,,,,,,,,,,,,,,
2017,08,31,04,20,00,113.7,,,,,,,,,,,,,,
2017,08,31,04,21,00,112.3,,,,,,,,,,,,,,
2017,08,31,04,22,00,118.6,,,,,,,,,,,,,,
2017,08,31,04,23,00,114.5,,,,,,,,,,,,,,
2017,08,31,04,24,00,106.1,,,,,,,,,,,,,,
2017,08,31,04,25,00,101.1,,,,,,,,,,,,,,
2017,08,31,04,26,00,98.6,,,,,,,,,,,,,,
2017,08,31,04,27,00,96.8,,,,,,,,,,,,,,
2017,08,31,04,28,00,96.8,,,,,,,,,,,,,,
2017,08,31,04,29,00,89.9,,,,,,,,,,,,,,
2017,08,31,04,30,00,85.9,,,,,,,,,,,,,,
2017,08,31,04,31,00,84.9,,,,,,,,,,,,,,
2017,08,31,04,32,00,84.5,,,,,,,,,,,,,,
2017,08,31,04,33,00,86.2,,,,,,,,,,,,,,
2017,08,31,04,34,00,87.0,,,,,,,,,,,,,,
2017,08,31,04,35,00,88.5,,,,,,,,,,,,,,
2017,08,31,04,36,00,88.8,,,,,,,,,,,,,,
2017,08,31,04,37,00,87.5,,,,,,,,,,,,,,
2017,08,31,04,38,00,87.2,,,,,,,,,,,,,,
2017,08,31,04,39,00,85.7,,,,,,,,,,,,,,
2017,08,31,04,40,00,94.4,,,,,,,,,,,,,,
2017,08,31,04,41,00,110.5,,,,,,,,,,,,,,
2017,08,31,04,42,00,115.1,,,,,,,,,,,,,,
2017,08,31,04,43,00,109.4,,,,,,,,,,,,,,
2017,08,31,04,44,00,113.4,,,,,,,,,,,,,,
2017,08,31,04,45,00,92.8,,,,,,,,,,,,,,
2017,08,31,04,46,00,83.3,,,,,,,,,,,,,,
2017,08,31,04,47,00,84.4,,,,,,,,,,,,,,
2017,08,31,04,48,00,85.2,,,,,,,,,,,,,,
2017,08,31,04,49,00,88.3,,,,,,,,,,,,,,
2017,08,31,04,50,00,89.4,,,,,,,,,,,,,,
2017,08,31,04,51,00,81.1,,,,,,,,,,,,,,
2017,08,31,04,52,00,80.9,,,,,,,,,,,,,,
2017,08,31,04,53,00,80.6,,,,,,,,,,,,,,
2017,08,31,04,54,00,81.1,,,,,,,,,,,,,,
2017,08,31,04,55,00,80.6,,,,,,,,,,,,,,
2017,08,31,04,56,00,81.1,,,,,,,,,,,,,,
2017,08,31,04,57,00,82.1,,,,,,,,,,,,,,
2017,08,31,04,58,00,99.6,,,,,,,,,,,,,,
2017,08,31,04,59,00,107.8,,,,,,,,,,,,,,
2017,08,31,05,00,00,136.4,,,,,,,,,,,,,,
2017,08,31,05,01,00,172.7,,,,,,,,,,,,,,
2017,08,31,05,02,00,168.3,,,,,,,,,,,,,,
2017,08,31,05,03,00,162.1,,,,,,,,,,,,,,
2017,08,31,05,04,00,161.6,,,,,,,,,,,,,,
2017,08,31,05,05,00,145.0,,,,,,,,,,,,,,
2017,08,31,05,06,00,143.1,,,,,,,,,,,,,,
2017,08,31,05,07,00,162.3,,,,,,,,,,,,,,
2017,08,31,05,08,00,184.9,,,,,,,,,,,,,,
2017,08,31,05,09,00,178.9,,,,,,,,,,,,,,
2017,08,31,05,10,00,165.2,,,,,,,,,,,,,,
2017,08,31,05,11,00,158.4,,,,,,,,,,,,,,
2017,08,31,05,12,00,149.9,,,,,,,,,,,,,,
2017,08,31,05,13,00,179.5,,,,,,,,,,,,,,
2017,08,31,05,14,00,195.7,,,,,,,,,,,,,,
2017,08,31,05,15,00,191.4,,,,,,,,,,,,,,
2017,08,31,05,16,00,173.0,,,,,,,,,,,,,,
2017,08,31,05,17,00,167.0,,,,,,,,,,,,,,
2017,08,31,05,18,00,185.1,,,,,,,,,,,,,,
2017,08,31,05,19,00,152.4,,,,,,,,,,,,,,
2017,08,31,05,20,00,156.8,,,,,,,,,,,,,,
2017,08,31,05,21,00,204.2,,,,,,,,,,,,,,
2017,08,31,05,22,00,208.2,,,,,,,,,,,,,,
2017,08,31,05,23,00,191.6,,,,,,,,,,,,,,
2017,08,31,05,24,00,169.2,,,,,,,,,,,,,,
2017,08,31,05,25,00,163.4,,,,,,,,,,,,,,
2017,08,31,05,26,00,161.7,,,,,,,,,,,,,,
2017,08,31,05,27,00,164.0,,,,,,,,,,,,,,
2017,08,31,05,28,00,157.5,,,,,,,,,,,,,,
2017,08,31,05,29,00,153.6,,,,,,,,,,,,,,
2017,08,31,05,30,00,152.2,,,,,,,,,,,,,,
2017,08,31,05,31,00,170.1,,,,,,,,,,,,,,
2017,08,31,05,32,00,229.2,,,,,,,,,,,,,,
2017,08,31,05,33,00,216.1,,,,,,,,,,,,,,
2017,08,31,05,34,00,196.4,,,,,,,,,,,,,,
2017,08,31,05,35,00,173.4,,,,,,,,,,,,,,
2017,08,31,05,36,00,177.8,,,,,,,,,,,,,,
2017,08,31,05,37,00,167.5,,,,,,,,,,,,,,
2017,08,31,05,38,00,178.5,,,,,,,,,,,,,,
2017,08,31,05,39,00,184.4,,,,,,,,,,,,,,
2017,08,31,05,40,00,199.6,,,,,,,,,,,,,,
2017,08,31,05,41,00,194.8,,,,,,,,,,,,,,
2017,08,31,05,42,00,206.1,,,,,,,,,,,,,,
2017,08,31,05,43,00,216.8,,,,,,,,,,,,,,
2017,08,31,05,44,00,229.9,,,,,,,,,,,,,,
2017,08,31,05,45,00,232.9,,,,,,,,,,,,,,
2017,08,31,05,46,00,230.0,,,,,,,,,,,,,,
2017,08,31,05,47,00,250.8,,,,,,,,,,,,,,
2017,08,31,05,48,00,259.7,,,,,,,,,,,,,,
2017,08,31,05,49,00,225.5,,,,,,,,,,,,,,
2017,08,31,05,50,00,215.2,,,,,,,,,,,,,,
2017,08,31,05,51,00,258.1,,,,,,,,,,,,,,
2017,08,31,05,52,00,265.0,,,,,,,,,,,,,,
2017,08,31,05,53,00,291.4,,,,,,,,,,,,,,
2017,08,31,05,54,00,297.1,,,,,,,,,,,,,,
2017,08,31,05,55,00,279.6,,,,,,,,,,,,,,
2017,08,31,05,56,00,229.4,,,,,,,,,,,,,,
2017,08,31,05,57,00,209.6,,,,,,,,,,,,,,
2017,08,31,05,58,00,213.9,,,,,,,,,,,,,,
2017,08,31,05,59,00,251.1,,,,,,,,,,,,,,
2017,08,31,06,00,00,290.5,,,,,,,,,,,,,,
2017,08,31,06,01,00,265.6,,,,,,,,,,,,,,
2017,08,31,06,02,00,253.5,,,,,,,,,,,,,,
2017,08,31,06,03,00,241.1,,,,,,,,,,,,,,
2017,08,31,06,04,00,251.3,,,,,,,,,,,,,,
2017,08,31,06,05,00,249.8,,,,,,,,,,,,,,
2017,08,31,06,06,00,244.2,,,,,,,,,,,,,,
2017,08,31,06,07,00,251.7,,,,,,,,,,,,,,
2017,08,31,06,08,00,247.8,,,,,,,,,,,,,,
2017,08,31,06,09,00,249.0,,,,,,,,,,,,,,
2017,08,31,06,10,00,253.4,,,,,,,,,,,,,,
2017,08,31,06,11,00,253.5,,,,,,,,,,,,,,
2017,08,31,06,12,00,252.9,,,,,,,,,,,,,,
2017,08,31,06,13,00,249.2,,,,,,,,,,,,,,
2017,08,31,06,14,00,245.8,,,,,,,,,,,,,,
2017,08,31,06,15,00,267.2,,,,,,,,,,,,,,
2017,08,31,06,16,00,264.6,,,,,,,,,,,,,,
2017,08,31,06,17,00,250.9,,,,,,,,,,,,,,
2017,08,31,06,18,00,249.0,,,,,,,,,,,,,,
2017,08,31,06,19,00,253.6,,,,,,,,,,,,,,
2017,08,31,06,20,00,247.4,,,,,,,,,,,,,,
2017,08,31,06,21,00,248.3,,,,,,,,,,,,,,
2017,08,31,06,22,00,271.4,,,,,,,,,,,,,,
2017,08,31,06,23,00,268.1,,,,,,,,,,,,,,
2017,08,31,06,24,00,260.5,,,,,,,,,,,,,,
2017,08,31,06,25,00,278.5,,,,,,,,,,,,,,
2017,08,31,06,26,00,297.4,,,,,,,,,,,,,,
2017,08,31,06,27,00,288.2,,,,,,,,,,,,,,
2017,08,31,06,28,00,265.1,,,,,,,,,,,,,,
2017,08,31,06,29,00,260.5,,,,,,,,,,,,,,
2017,08,31,06,30,00,259.8,,,,,,,,,,,,,,
2017,08,31,06,31,00,263.2,,,,,,,,,,,,,,
2017,08,31,06,32,00,283.9,,,,,,,,,,,,,,
2017,08,31,06,33,00,296.9,,,,,,,,,,,,,,
2017,08,31,06,34,00,292.1,,,,,,,,,,,,,,
2017,08,31,06,35,00,280.1,,,,,,,,,,,,,,
2017,08,31,06,36,00,252.7,,,,,,,,,,,,,,
2017,08,31,06,37,00,258.3,,,,,,,,,,,,,,
2017,08,31,06,38,00,286.0,,,,,,,,,,,,,,
2017,08,31,06,39,00,289.9,,,,,,,,,,,,,,
2017,08,31,06,40,00,274.1,,,,,,,,,,,,,,
2017,08,31,06,41,00,264.0,,,,,,,,,,,,,,
2017,08,31,06,42,00,289.4,,,,,,,,,,,,,,
2017,08,31,06,43,00,296.7,,,,,,,,,,,,,,
2017,08,31,06,44,00,274.5,,,,,,,,,,,,,,
2017,08,31,06,45,00,275.2,,,,,,,,,,,,,,
2017,08,31,06,46,00,274.6,,,,,,,,,,,,,,
2017,08,31,06,47,00,299.3,,,,,,,,,,,,,,
2017,08,31,06,48,00,307.3,,,,,,,,,,,,,,
2017,08,31,06,49,00,320.5,,,,,,,,,,,,,,
2017,08,31,06,50,00,329.7,,,,,,,,,,,,,,
2017,08,31,06,51,00,340.0,,,,,,,,,,,,,,
2017,08,31,06,52,00,342.6,,,,,,,,,,,,,,
2017,08,31,06,53,00,317.4,,,,,,,,,,,,,,
2017,08,31,06,54,00,313.9,,,,,,,,,,,,,,
2017,08,31,06,55,00,312.0,,,,,,,,,,,,,,
2017,08,31,06,56,00,307.4,,,,,,,,,,,,,,
2017,08,31,06,57,00,288.8,,,,,,,,,,,,,,
2017,08,31,06,58,00,274.2,,,,,,,,,,,,,,
2017,08,31,06,59,00,260.4,,,,,,,,,,,,,,
2017,08,31,07,00,00,281.5,,,,,,,,,,,,,,
2017,08,31,07,01,00,321.7,,,,,,,,,,,,,,
2017,08,31,07,02,00,340.3,,,,,,,,,,,,,,
2017,08,31,07,03,00,329.7,,,,,,,,,,,,,,
2017,08,31,07,04,00,306.3,,,,,,,,,,,,,,
2017,08,31,07,05,00,276.8,,,,,,,,,,,,,,
2017,08,31,07,06,00,263.6,,,,,,,,,,,,,,
2017,08,31,07,07,00,294.6,,,,,,,,,,,,,,
2017,08,31,07,08,00,300.4,,,,,,,,,,,,,,
2017,08,31,07,09,00,315.3,,,,,,,,,,,,,,
2017,08,31,07,10,00,329.9,,,,,,,,,,,,,,
2017,08,31,07,11,00,349.0,,,,,,,,,,,,,,
2017,08,31,07,12,00,321.0,,,,,,,,,,,,,,
2017,08,31,07,13,00,293.6,,,,,,,,,,,,,,
2017,08,31,07,14,00,275.4,,,,,,,,,,,,,,
2017,08,31,07,15,00,298.1,,,,,,,,,,,,,,
2017,08,31,07,16,00,320.6,,,,,,,,,,,,,,
2017,08,31,07,17,00,329.0,,,,,,,,,,,,,,
2017,08,31,07,18,00,321.3,,,,,,,,,,,,,,
2017,08,31,07,19,00,323.4,,,,,,,,,,,,,,
2017,08,31,07,20,00,325.2,,,,,,,,,,,,,,
2017,08,31,07,21,00,355.7,,,,,,,,,,,,,,
2017,08,31,07,22,00,358.0,,,,,,,,,,,,,,
2017,08,31,07,23,00,321.1,,,,,,,,,,,,,,
2017,08,31,07,24,00,330.2,,,,,,,,,,,,,,
2017,08,31,07,25,00,356.0,,,,,,,,,,,,,,
2017,08,31,07,26,00,358.6,,,,,,,,,,,,,,
2017,08,31,07,27,00,349.7,,,,,,,,,,,,,,
2017,08,31,07,28,00,350.9,,,,,,,,,,,,,,
2017,08,31,07,29,00,334.5,,,,,,,,,,,,,,
2017,08,31,07,30,00,339.7,,,,,,,,,,,,,,
2017,08,31,07,31,00,329.6,,,,,,,,,,,,,,
2017,08,31,07,32,00,334.2,,,,,,,,,,,,,,
2017,08,31,07,33,00,361.0,,,,,,,,,,,,,,
2017,08,31,07,34,00,338.4,,,,,,,,,,,,,,
2017,08,31,07,35,00,326.0,,,,,,,,,,,,,,
2017,08,31,07,36,00,308.5,,,,,,,,,,,,,,
2017,08,31,07,37,00,324.5,,,,,,,,,,,,,,
2017,08,31,07,38,00,337.7,,,,,,,,,,,,,,
2017,08,31,07,39,00,333.0,,,,,,,,,,,,,,
2017,08,31,07,40,00,340.8,,,,,,,,,,,,,,
2017,08,31,07,41,00,341.4,,,,,,,,,,,,,,
2017,08,31,07,42,00,339.8,,,,,,,,,,,,,,
2017,08,31,07,43,00,339.7,,,,,,,,,,,,,,
2017,08,31,07,44,00,348.0,,,,,,,,,,,,,,
2017,08,31,07,45,00,346.2,,,,,,,,,,,,,,
2017,08,31,07,46,00,332.0,,,,,,,,,,,,,,
2017,08,31,07,47,00,342.6,,,,,,,,,,,,,,
2017,08,31,07,48,00,339.2,,,,,,,,,,,,,,
2017,08,31,07,49,00,341.5,,,,,,,,,,,,,,
2017,08,31,07,50,00,345.3,,,,,,,,,,,,,,
2017,08,31,07,51,00,343.2,,,,,,,,,,,,,,
2017,08,31,07,52,00,338.8,,,,,,,,,,,,,,
2017,08,31,07,53,00,340.3,,,,,,,,,,,,,,
2017,08,31,07,54,00,359.1,,,,,,,,,,,,,,
2017,08,31,07,55,00,339.3,,,,,,,,,,,,,,
2017,08,31,07,56,00,337.2,,,,,,,,,,,,,,
2017,08,31,07,57,00,329.4,,,,,,,,,,,,,,
2017,08,31,07,58,00,348.3,,,,,,,,,,,,,,
2017,08,31,07,59,00,358.3,,,,,,,,,,,,,,
2017,08,31,08,00,00,332.9,,,,,,,,,,,,,,
2017,08,31,08,01,00,342.6,,,,,,,,,,,,,,
2017,08,31,08,02,00,339.9,,,,,,,,,,,,,,
2017,08,31,08,03,00,353.5,,,,,,,,,,,,,,
2017,08,31,08,04,00,334.7,,,,,,,,,,,,,,
2017,08,31,08,05,00,323.9,,,,,,,,,,,,,,
2017,08,31,08,06,00,336.6,,,,,,,,,,,,,,
2017,08,31,08,07,00,352.2,,,,,,,,,,,,,,
2017,08,31,08,08,00,339.9,,,,,,,,,,,,,,
2017,08,31,08,09,00,322.3,,,,,,,,,,,,,,
2017,08,31,08,10,00,313.8,,,,,,,,,,,,,,
2017,08,31,08,11,00,332.8,,,,,,,,,,,,,,
2017,08,31,08,12,00,346.8,,,,,,,,,,,,,,
2017,08,31,08,13,00,340.6,,,,,,,,,,,,,,
2017,08,31,08,14,00,337.2,,,,,,,,,,,,,,
2017,08,31,08,15,00,353.3,,,,,,,,,,,,,,
2017,08,31,08,16,00,332.0,,,,,,,,,,,,,,
2017,08,31,08,17,00,328.3,,,,,,,,,,,,,,
2017,08,31,08,18,00,334.1,,,,,,,,,,,,,,
2017,08,31,08,19,00,313.0,,,,,,,,,,,,,,
2017,08,31,08,20,00,348.6,,,,,,,,,,,,,,
2017,08,31,08,21,00,343.4,,,,,,,,,,,,,,
2017,08,31,08,22,00,374.6,,,,,,,,,,,,,,
2017,08,31,08,23,00,353.0,,,,,,,,,,,,,,
2017,08,31,08,24,00,341.0,,,,,,,,,,,,,,
2017,08,31,08,25,00,348.3,,,,,,,,,,,,,,
2017,08,31,08,26,00,339.8,,,,,,,,,,,,,,
2017,08,31,08,27,00,377.8,,,,,,,,,,,,,,
2017,08,31,08,28,00,377.7,,,,,,,,,,,,,,
2017,08,31,08,29,00,356.6,,,,,,,,,,,,,,
2017,08,31,08,30,00,342.6,,,,,,,,,,,,,,
2017,08,31,08,31,00,347.1,,,,,,,,,,,,,,
2017,08,31,08,32,00,377.3,,,,,,,,,,,,,,
2017,08,31,08,33,00,397.8,,,,,,,,,,,,,,
2017,08,31,08,34,00,384.9,,,,,,,,,,,,,,
2017,08,31,08,35,00,369.9,,,,,,,,,,,,,,
2017,08,31,08,36,00,371.0,,,,,,,,,,,,,,
2017,08,31,08,37,00,342.1,,,,,,,,,,,,,,
2017,08,31,08,38,00,357.6,,,,,,,,,,,,,,
2017,08,31,08,39,00,340.0,,,,,,,,,,,,,,
2017,08,31,08,40,00,370.5,,,,,,,,,,,,,,
2017,08,31,08,41,00,346.7,,,,,,,,,,,,,,
2017,08,31,08,42,00,345.0,,,,,,,,,,,,,,
2017,08,31,08,43,00,365.1,,,,,,,,,,,,,,
2017,08,31,08,44,00,350.3,,,,,,,,,,,,,,
2017,08,31,08,45,00,377.2,,,,,,,,,,,,,,
2017,08,31,08,46,00,361.4,,,,,,,,,,,,,,
2017,08,31,08,47,00,371.2,,,,,,,,,,,,,,
2017,08,31,08,48,00,378.6,,,,,,,,,,,,,,
2017,08,31,08,49,00,383.8,,,,,,,,,,,,,,
2017,08,31,08,50,00,376.7,,,,,,,,,,,,,,
2017,08,31,08,51,00,359.4,,,,,,,,,,,,,,
2017,08,31,08,52,00,353.4,,,,,,,,,,,,,,
2017,08,31,08,53,00,373.3,,,,,,,,,,,,,,
2017,08,31,08,54,00,356.5,,,,,,,,,,,,,,
2017,08,31,08,55,00,369.7,,,,,,,,,,,,,,
2017,08,31,08,56,00,393.8,,,,,,,,,,,,,,
2017,08,31,08,57,00,375.4,,,,,,,,,,,,,,
2017,08,31,08,58,00,368.3,,,,,,,,,,,,,,
2017,08,31,08,59,00,370.5,,,,,,,,,,,,,,
2017,08,31,09,00,00,365.4,,,,,,,,,,,,,,
2017,08,31,09,01,00,379.9,,,,,,,,,,,,,,
2017,08,31,09,02,00,400.5,,,,,,,,,,,,,,
2017,08,31,09,03,00,424.1,,,,,,,,,,,,,,
2017,08,31,09,04,00,433.9,,,,,,,,,,,,,,
2017,08,31,09,05,00,402.1,,,,,,,,,,,,,,
2017,08,31,09,06,00,370.7,,,,,,,,,,,,,,
2017,08,31,09,07,00,383.8,,,,,,,,,,,,,,
2017,08,31,09,08,00,366.5,,,,,,,,,,,,,,
2017,08,31,09,09,00,350.2,,,,,,,,,,,,,,
2017,08,31,09,10,00,374.0,,,,,,,,,,,,,,
2017,08,31,09,11,00,400.5,,,,,,,,,,,,,,
2017,08,31,09,12,00,,,,,,,,,,,,,,,
2017,08,31,09,13,00,,,,,,,,,,,,,,,
2017,08,31,09,14,00,381.4,,,,,,,,,,,,,,
2017,08,31,09,15,00,395.0,,,,,,,,,,,,,,
2017,08,31,09,16,00,396.2,,,,,,,,,,,,,,
2017,08,31,09,17,00,391.5,,,,,,,,,,,,,,
2017,08,31,09,18,00,340.5,,,,,,,,,,,,,,
2017,08,31,09,19,00,362.4,,,,,,,,,,,,,,
2017,08,31,09,20,00,375.6,,,,,,,,,,,,,,
2017,08,31,09,21,00,380.5,,,,,,,,,,,,,,
2017,08,31,09,22,00,361.1,,,,,,,,,,,,,,
2017,08,31,09,23,00,347.1,,,,,,,,,,,,,,
2017,08,31,09,24,00,356.4,,,,,,,,,,,,,,
2017,08,31,09,25,00,339.2,,,,,,,,,,,,,,
2017,08,31,09,26,00,337.6,,,,,,,,,,,,,,
2017,08,31,09,27,00,350.9,,,,,,,,,,,,,,
2017,08,31,09,28,00,398.8,,,,,,,,,,,,,,
2017,08,31,09,29,00,377.5,,,,,,,,,,,,,,
2017,08,31,09,30,00,358.3,,,,,,,,,,,,,,
2017,08,31,09,31,00,382.6,,,,,,,,,,,,,,
2017,08,31,09,32,00,375.5,,,,,,,,,,,,,,
2017,08,31,09,33,00,337.0,,,,,,,,,,,,,,
2017,08,31,09,34,00,329.9,,,,,,,,,,,,,,
2017,08,31,09,35,00,337.2,,,,,,,,,,,,,,
2017,08,31,09,36,00,333.6,,,,,,,,,,,,,,
2017,08,31,09,37,00,370.6,,,,,,,,,,,,,,
2017,08,31,09,38,00,393.4,,,,,,,,,,,,,,
2017,08,31,09,39,00,370.8,,,,,,,,,,,,,,
2017,08,31,09,40,00,336.3,,,,,,,,,,,,,,
2017,08,31,09,41,00,352.4,,,,,,,,,,,,,,
2017,08,31,09,42,00,394.1,,,,,,,,,,,,,,
2017,08,31,09,43,00,394.3,,,,,,,,,,,,,,
2017,08,31,09,44,00,356.8,,,,,,,,,,,,,,
2017,08,31,09,45,00,385.8,,,,,,,,,,,,,,